FENGYUN 1C DEB, 32314

Orbit data source: Space-Track

FENGYUN 1C DEB, 32314 is space debris in SSO originally from a launch on Mon, 10 May 1999 UTC launched from the Taiyaun Space Center, China (TSC). Fengyun 1C debris stems from the Chinese weather satellite Fengyun-1C, which was intentionally destroyed by a Chinese anti-satellite missile in 2007. This event dramatically increased the amount of space debris, with thousands of trackable fragments posing hazards to satellites and human spaceflight. The Fengyun 1C debris cloud has become a focal point in discussions about space sustainability and the need for international regulations to prevent the creation of new debris.

Loading next visibility...
Identifier
32314, 1999-025CXF
Orbit
SSO
Country
Flag of CNCN / PRC
Related business
Manufacturer
Unknown
Mission
Spacecraft
Bus & Motor
Unknown
Mass
Unknown
Launch date (UTC)
1999-05-10 (27 years ago)
Launch vehicle
Unknown
Launch site
Taiyaun Space Center, China (TSC)
Object type
Payload
Rocket body
Debris
Shape & HBR
Unknown shape, 0.1 m
Radar Cross Section
Small (<0.1 m²)

Expand to show TLE details & history
Last TLE update: 5 days ago

TLE from 5 days ago
0 FENGYUN 1C DEB
1 32314U 99025CXF 26066.55049227  .00016648  00000-0  17862-2 0  9993
2 32314  98.8620 185.4298 0143567 249.2966 109.2805 14.81371774986853
Epoch: 2026-03-07T13:12Z
TLE epoch observation values (Epoch: 2026-03-07T13:12:42.532Z)
Latitude
-0°
Longitude
-178.01795°
Altitude
662.473 km
Speed
7.507 km/s
True Right ascension
12h 21m 43s
True Declination
0° 00' 00"
Sunlit
Object was in full shadow at epoch
Visualization orbit readout
Latitude
Unknown
Longitude
Unknown
Altitude
Unknown
Speed
Unknown
Apparent Right ascension
Unknown
Apparent Declination
Unknown
Sunlit
N/A
Visualization observer readout
Local Sidereal Time
22:49:06
Azimuth
Unknown
Elevation
Unknown
Doppler factor
Unknown
Orbital elements
Apogee altitude
722.581 km
Perigee altitude
521.581 km
Semi-major axis
7,000.218 km
Eccentricity
0.01436
Inclination
98.862°
RAAN
185.4298°
Arg. of periapsis
249.2966°
True anomaly
110.82405°
Mean anomaly
109.2805°
Eccentric anomaly
110.05321°
Mean motion
3.70575 °/min
Orbital period
97.15 mins
BSTAR
0.0017862
Loading maneuver chart data...
Computing Atmospheric mass density...

Documentation

Showing up to 5 results
|